CAPE
0 0 0 0 0 1 0 0 0 0 0 0 0 0 0 0 0 0 0 105 491 822 764 948 409 518 901 1189 1028 806 590 290 88
0 0 0 0 0 0 0 0 0 0 0 0 0 0 0 0 0 0 0 0 0 432 622 900 652 716 663 778 1230 1118 864 656 358
0 0 0 0 0 0 0 0 0 0 0 0 0 0 0 0 0 0 0 0 0 0 4 872 700 687 759 753 1009 1188 1038 903 726
0 0 0 0 0 0 0 0 0 0 0 0 0 0 0 0 0 0 0 0 0 0 178 606 592 771 917 893 912 1089 1123 1000 854
0 0 0 0 0 0 0 0 0 0 0 0 0 0 0 0 0 0 0 0 0 0 0 0 2 280 608 727 880 1034 986 900 956
0 0 0 0 0 0 0 0 0 0 0 0 0 0 0 0 0 0 0 0 0 0 0 0 0 0 0 1 78 393 703 794 917
0 0 0 0 0 0 0 0 0 0 0 0 0 0 0 0 0 0 0 0 0 0 0 0 0 0 0 0 0 0 31 289 718
0 0 0 0 0 0 0 0 0 0 0 0 0 0 0 0 0 0 0 0 0 0 0 0 0 0 0 0 0 0 0 0 37
0 0 0 0 0 0 0 0 0 0 0 0 0 0 0 0 0 0 0 0 0 0 4 4 2 2 2 2 1 2 3 3 0
0 0 0 0 0 0 0 0 0 0 0 0 0 0 0 0 0 0 0 0 0 3 1 8 15 18 15 6 0 1 3 4 7
0 0 0 0 0 0 0 0 0 0 0 0 0 0 0 0 0 0 0 0 0 0 3 13 19 18 20 24 29 18 5 5 8
0 0 0 0 0 0 0 0 0 0 0 0 0 0 0 0 0 0 0 0 0 0 6 19 12 12 24 21 15 31 41 26 10
0 0 0 0 0 0 0 0 0 0 0 0 0 0 0 0 0 0 0 0 0 0 0 2 8 22 25 22 9 20 37 37 33
0 0 0 0 0 0 0 0 0 0 0 0 0 0 0 0 0 0 0 0 0 0 0 0 0 3 6 5 19 46 44 84 105
0 0 0 0 0 0 0 0 0 0 0 0 0 0 0 0 0 1 5 0 0 0 0 0 0 0 0 0 1 13 46 123 172
0 0 0 0 0 0 0 0 0 0 0 0 0 0 0 0 0 0 0 0 0 0 0 0 0 0 0 0 0 12 57 132 142
0 0 0 0 0 0 0 0 0 0 0 0 0 0 0 0 0 0 0 0 0 0 0 0 0 0 0 0 0 7 26 79 135
0 0 0 0 0 0 0 0 0 0 0 0 0 0 0 0 0 0 0 0 0 0 0 0 0 0 0 0 0 0 2 17 114
0 0 0 0 0 0 0 0 0 0 0 0 0 0 0 0 0 0 0 0 0 0 0 0 0 0 0 0 0 0 1 9 34
0 0 0 0 0 0 0 0 0 0 0 0 0 0 0 0 1 0 0 0 0 0 0 0 0 0 0 0 0 0 0 5 17
CIN
-0 -0 -0 -0 -0 -0 -0 -0 -0 -0 -0 -0 -0 -0 -0 -0 -0 -0 -0 -29 -9 -2 -0 -0 -9 -7 -0 -0 -0 -0 -0 -0 -13
-0 -0 -0 -0 -0 -0 -0 -0 -0 -0 -0 -0 -0 -0 -0 -0 -0 -0 -0 -0 -0 -10 -0 -0 -0 -0 -1 -0 -0 -0 -0 -0 -0
-0 -0 -0 -0 -0 -0 -0 -0 -0 -0 -0 -0 -0 -0 -0 -0 -0 -0 -0 -0 -0 -0 -28 -0 -0 -3 -0 -3 -0 -0 -0 -0 -0
-0 -0 -0 -0 -0 -0 -0 -0 -0 -0 -0 -0 -0 -0 -0 -0 -0 -0 -0 -0 -0 -0 -44 -1 -0 -0 -0 -0 -1 -0 -0 -0 -0
-0 -0 -0 -0 -0 -0 -0 -0 -0 -0 -0 -0 -0 -0 -0 -0 -0 -0 -0 -0 -0 -0 -0 -0 -154 -81 -7 -1 -0 -0 -0 -0 -0
-0 -0 -0 -0 -0 -0 -0 -0 -0 -0 -0 -0 -0 -0 -0 -0 -0 -0 -0 -0 -0 -0 -0 -0 -0 -0 -0 -55 -268 -51 -3 -0 -0
-0 -0 -0 -0 -0 -0 -0 -0 -0 -0 -0 -0 -0 -0 -0 -0 -0 -0 -0 -0 -0 -0 -0 -0 -0 -0 -0 -0 -0 -0 -107 -89 -0
-0 -0 -0 -0 -0 -0 -0 -0 -0 -0 -0 -0 -0 -0 -0 -0 -0 -0 -0 -0 -0 -0 -0 -0 -0 -0 -0 -0 -0 -0 -0 -0 -174
-0 -0 -0 -0 -0 -0 -0 -0 -0 -0 -0 -0 -0 -0 -0 -0 -0 -0 -0 -0 -0 -0 -0 -0 -0 -0 -0 -0 -0 -0 -0 -0 -0
-0 -0 -0 -0 -0 -0 -0 -0 -0 -0 -0 -0 -0 -0 -0 -0 -0 -0 -0 -0 -0 -2 -0 -0 -0 -0 -0 -0 -0 -0 -0 -0 -0
-0 -0 -0 -0 -0 -0 -0 -0 -0 -0 -0 -0 -0 -0 -0 -0 -0 -0 -0 -0 -0 -0 -0 -0 -0 -0 -0 -0 -0 -0 -0 -0 -0
-0 -0 -0 -0 -0 -0 -0 -0 -0 -0 -0 -0 -0 -0 -0 -0 -0 -0 -0 -0 -0 -0 -0 -0 -0 -0 -0 -0 -0 -0 -0 -0 -0
-0 -0 -0 -0 -0 -0 -0 -0 -0 -0 -0 -0 -0 -0 -0 -0 -0 -0 -0 -0 -0 -0 -0 -0 -0 -0 -0 -0 -0 -0 -0 -0 -0
-0 -0 -0 -0 -0 -0 -0 -0 -0 -0 -0 -0 -0 -0 -0 -0 -0 -0 -0 -0 -0 -0 -0 -0 -0 -0 -0 -0 -0 -0 -0 -0 -0
-0 -0 -0 -0 -0 -0 -0 -0 -0 -0 -0 -0 -0 -0 -0 -0 -0 -22 -51 -0 -0 -0 -0 -0 -0 -0 -0 -0 -0 -0 -0 -21 -112
-0 -0 -0 -0 -0 -0 -0 -0 -0 -0 -0 -0 -0 -0 -0 -0 -0 -0 -0 -0 -0 -0 -0 -0 -0 -0 -0 -0 -0 -0 -0 -0 -44
-0 -0 -0 -0 -0 -0 -0 -0 -0 -0 -0 -0 -0 -0 -0 -0 -0 -0 -0 -0 -0 -0 -0 -0 -0 -0 -0 -0 -0 -0 -14 -0 -53
-0 -0 -0 -0 -0 -0 -0 -0 -0 -0 -0 -0 -0 -0 -0 -0 -0 -0 -0 -0 -0 -0 -0 -0 -0 -0 -0 -0 -0 -0 -0 -3 -0
-0 -0 -0 -0 -0 -0 -0 -0 -0 -0 -0 -0 -0 -0 -0 -0 -0 -0 -0 -0 -0 -0 -0 -0 -0 -0 -0 -0 -0 -0 -0 -0 -0
-0 -0 -0 -0 -0 -0 -0 -0 -0 -0 -0 -0 -0 -0 -0 -0 -10 -0 -0 -0 -0 -0 -0 -0 -0 -0 -0 -0 -0 -0 -0 -0 -0
Wind_Speed
9 9 9 9 10 11 9 9 9 9 9 10 11 10 11 11 6 5 6 6 12 15 12 12 13 12 13 13 14 13 12 11 10
10 8 9 9 9 9 10 10 9 9 9 10 10 11 11 6 6 6 6 6 15 15 14 16 14 14 14 14 15 15 15 15 13
8 8 10 9 10 10 10 10 10 10 10 9 9 10 9 6 6 7 6 11 14 16 16 13 15 16 15 14 15 16 16 17 16
6 6 8 10 11 11 11 10 11 10 10 11 11 8 8 5 4 6 4 12 13 12 11 11 11 16 16 15 15 16 17 18 18
8 8 8 10 10 11 12 11 12 10 12 12 14 10 7 5 5 4 4 9 9 8 9 9 9 11 11 14 16 15 16 18 18
7 9 10 9 10 12 13 13 12 11 9 10 10 9 3 4 3 3 9 9 9 9 11 11 11 11 13 13 12 12 16 18 18
6 8 11 11 11 12 13 14 13 9 4 4 7 3 4 3 3 3 10 10 10 10 11 12 12 12 13 14 15 15 16 16 16
4 3 4 4 7 4 6 6 4 6 5 5 4 4 4 3 3 5 10 11 11 11 12 13 13 14 14 15 15 15 16 17 17
4 3 4 4 3 5 5 4 5 6 6 6 6 6 4 3 3 4 9 11 13 13 13 13 13 14 14 15 16 16 16 17 18
3 4 4 4 4 4 5 5 5 5 6 6 5 6 6 6 3 2 7 8 11 12 12 15 16 15 15 15 16 16 17 18 19
4 4 4 4 4 4 4 4 4 4 5 6 6 6 5 5 5 1 3 8 9 11 12 14 14 15 16 17 18 17 18 19 20
4 4 4 4 4 5 5 4 4 5 5 6 5 5 6 5 5 1 2 3 7 10 11 14 14 13 13 14 16 18 19 19 20
4 4 4 4 4 3 4 3 4 4 4 4 5 4 5 5 4 1 2 3 3 5 11 12 14 15 15 15 15 16 18 20 20
4 4 4 5 4 4 3 3 2 3 5 6 5 4 4 4 2 2 4 4 4 3 8 11 11 14 15 17 19 20 19 22 25
4 4 5 4 4 4 4 3 3 2 4 5 5 3 2 4 4 3 4 5 5 5 5 4 5 14 16 18 19 22 25 27 22
4 3 4 4 4 4 4 3 3 3 5 4 4 3 3 4 3 3 4 5 6 6 6 4 3 5 15 16 18 21 25 28 30
3 4 4 5 4 5 5 4 3 2 4 2 1 4 5 4 3 3 4 6 4 6 7 7 5 5 4 9 18 23 25 29 35
5 5 4 5 3 3 3 3 4 2 3 4 2 3 2 5 3 3 4 7 7 5 6 8 5 5 5 8 11 21 25 29 30
5 5 5 5 3 4 3 3 2 2 3 3 2 0 2 1 5 3 5 7 8 7 6 6 5 4 4 9 14 19 22 26 27
6 6 6 5 4 4 4 4 4 1 1 1 2 2 1 1 2 5 6 6 4 4 5 5 2 4 5 5 9 18 21 22 24
Wind_Direction
19 16 10 6 360 354 351 348 346 342 336 330 326 328 331 336 330 321 304 299 288 281 256 232 232 231 229 225 220 219 215 210 212
27 20 6 359 359 358 350 348 347 343 337 330 324 319 321 324 318 312 310 304 304 308 290 238 231 235 234 234 228 223 220 215 213
10 7 9 11 7 3 359 353 348 345 340 338 331 325 321 318 309 303 300 303 308 306 303 276 247 243 241 236 239 229 230 225 218
329 346 356 7 8 3 357 0 0 356 354 344 335 316 320 329 300 296 291 294 302 314 327 350 281 248 246 248 242 240 232 231 231
330 342 331 350 358 5 358 357 345 355 354 355 350 350 356 336 314 291 289 303 326 329 342 349 346 348 293 288 268 254 253 247 239
9 3 357 358 12 13 12 16 14 17 4 0 358 8 351 336 327 310 316 339 336 336 335 334 329 321 314 310 304 298 277 261 256
24 14 15 13 20 16 12 6 5 0 345 339 347 340 328 320 319 314 331 341 334 332 330 326 322 319 312 305 302 295 291 286 275
15 6 8 2 11 6 5 357 354 347 343 332 324 322 328 311 314 315 322 334 339 337 331 325 321 315 308 302 296 293 290 287 285
3 8 359 9 351 358 360 351 342 350 343 343 333 332 325 313 292 292 303 335 343 333 328 324 315 311 309 302 294 291 286 282 279
356 1 2 360 349 2 351 352 352 347 341 334 333 329 326 320 311 299 354 20 18 359 342 328 320 316 309 300 291 288 285 284 277
12 1 0 354 349 347 350 350 349 336 338 329 328 321 318 318 323 355 38 34 24 4 356 344 328 315 309 308 306 290 284 283 279
8 3 358 341 337 349 355 353 351 350 337 324 318 314 317 312 332 112 75 37 18 4 3 1 359 349 335 325 305 296 292 276 275
13 9 357 339 347 348 351 346 342 339 333 314 303 311 310 318 309 155 68 45 27 342 349 358 6 1 355 351 350 334 326 313 295
24 6 348 355 355 354 348 335 1 333 333 318 312 327 333 345 357 38 31 22 14 344 341 352 352 350 358 0 358 346 330 320 301
18 9 1 4 360 349 350 343 330 314 320 319 323 340 359 24 34 19 40 14 357 339 331 336 334 351 353 5 357 350 340 343 316
25 16 7 2 7 339 343 325 342 327 335 345 340 339 283 25 10 13 28 15 355 344 334 330 332 336 352 357 354 358 355 344 339
37 32 10 7 358 358 357 13 339 320 13 353 287 356 332 348 349 359 18 10 342 351 339 327 347 341 341 345 355 358 0 0 1
40 23 20 8 12 354 339 349 12 341 314 11 109 12 332 330 307 4 20 3 349 339 327 327 350 351 345 348 352 3 0 6 7
21 20 19 14 3 3 332 353 355 20 338 326 27 197 216 309 318 326 349 351 329 328 320 317 346 8 350 348 356 8 4 4 5
12 12 9 7 357 341 346 349 344 348 281 265 329 340 296 190 273 300 326 324 315 307 312 320 330 26 10 337 356 10 7 3 4